sat.trackr.live / text

‹ back to catalog

STARLINK-30126

NORAD 56694 · 2023-067G

PAYLOAD ACTIVE UNKNOWN

§ Identity

Operator
Country
US
Launch date
2023-05-19
Launch site
AFETR
Launch vehicle
Mass (kg)
RCS (m²)

Purposes: comms

External: N2YO · Heavens-Above · Gunter

§ Orbital elements

Epoch: 2026-09-20T10:05:38.526720Z

Period
94.27 min
Inclination
43.0028°
Eccentricity
0.0001164
Mean motion
15.27568804 rev/d
Perigee alt
482.3 km
Apogee alt
483.9 km
Semi-major
6,861.2 km
B*
8.0696e-5
RAAN
254.5600°
Arg perigee
267.6260°
Mean anomaly
92.4458°
Rev number
18,544

§ Raw data

STARLINK-301261 56694U 23067G   26263.42058480  .00001958  00000+0  80696-4 0  99932 56694  43.0028 254.5600 0001164 267.6260  92.4458 15.27568804185442

JSON: /api/v1/satellites/56694 · /tle

For live sub-satellite position, see the globe view (requires WebGL).

§ Visibility from observer

Set your observer location to see the next 7 days of passes ≥ 10°. The values pass through the URL so the page stays shareable.

No JS? Fill the form by hand. The geolocation button needs JavaScript.